Regional Weather Roundup
Issued by NWS San Diego, CA

Home | Current Version | Previous Version | Text Only | Print | Product List | Glossary On
Versions: 1 2 3 4 5 6 7 8 9 10 11 12 13 14 15 16 17 18 19 20 21 22 23 24 25 26 27 28 29 30 31 32 33 34 35 36 37 38 39 40 41 42 43 44 45 46 47 48 49 50
000
ASUS46 KSGX 231711
RWRSGX

SAN DIEGO HOURLY WEATHER ROUNDUP
NATIONAL WEATHER SERVICE SAN DIEGO CA
1000 AM PDT MON OCT 23 2017

NOTE: "FAIR" INDICATES FEW OR NO CLOUDS BELOW 12,000 FEET WITH NO
SIGNIFICANT WEATHER AND/OR OBSTRUCTIONS TO VISIBILITY.

CAZ042-043-060-061-PZZ750-775-231800-

GREATER SAN DIEGO AREA

CITY           SKY/WX    TMP DP  RH WIND       PRES   REMARKS
SAN DIEGO AP   SUNNY     81  38  21 NW5       30.08S
NATIONAL CITY    N/A     82  46  28 CALM      30.09S
CHULA VISTA      N/A     84  47  26 CALM      29.99S
IMPERIAL BEACH SUNNY     85  36  17 CALM      30.07S
BROWN FIELD    SUNNY     90  29  11 N5        30.08S
MIRAMAR MCAS   SUNNY     93  30  10 VRB3      30.08S
MONTGOMERY FLD SUNNY     92  27   9 CALM      30.09R

$$

NORTH SAN DIEGO COUNTY

CITY           SKY/WX    TMP DP  RH WIND       PRES   REMARKS
CAMP PENDLETON SUNNY     82  46  28 CALM      30.07S
OCEANSIDE AP   SUNNY     82  42  24 CALM      30.06S
OCEANSIDE HBR    N/A     76  54  46 NW1       30.09S
VISTA            N/A     88  41  19 CALM      30.05S
CARLSBAD       SUNNY     87  38  17 CALM      30.07S
DEL MAR          N/A     80  50  34 CALM      30.09S
LA JOLLA SCRIP   N/A     82  46  27 S2        30.06S
FALLBROOK        N/A     88  32  13 NE5       30.10R
ESCONDIDO        N/A     83  45  26 CALM      30.09S
SAN MARCOS       N/A     85  41  20 CALM      30.09S
POWAY            N/A     81  42  25 CALM      30.10F

$$

EAST SAN DIEGO COUNTY

CITY           SKY/WX    TMP DP  RH WIND       PRES   REMARKS
RAMONA         SUNNY     95  23   7 E15G23    30.13S
SANTEE LAKES     N/A     74  43  32 CALM      30.07S
LA MESA          N/A     82  38  21 CALM      30.01R
JAMUL            N/A     88  38  17 CALM      30.08S
DESCANSO N       N/A     82  30  15 E12       30.01R
CAMPO            N/A     86  20   9 NE18G26   30.18

$$

ORANGE COUNTY AND THE LOS ANGELES BASIN

CITY           SKY/WX    TMP DP  RH WIND       PRES   REMARKS
JOHN WAYNE AP  SUNNY     80  59  48 SW6       30.06S
LAGUNA BEACH     N/A     73  55  52 NW1       30.02S
LAKE FOREST FR   N/A     90  29  11 CALM      29.94R
HUNTINGTON BCH   N/A     81  57  43 CALM      30.08S
FULLERTON      SUNNY     89  45  21 W3        30.06S
LONG BEACH     SUNNY     84  41  21 NW7       30.08R
L.A. AP        SUNNY     89  45  21 CALM      30.08S
L.A. DOWNTOWN  SUNNY     87  37  17 CALM      30.07S

$$

THE INLAND EMPIRE

CITY           SKY/WX    TMP DP  RH WIND       PRES   REMARKS
CORONA         SUNNY     92  31  11 SE10G16   30.12F
CHINO          SUNNY     97  23   7 E17G24    30.11F
ONTARIO        SUNNY     84  34  16 SW3       30.12S
SAN BERNARDINO SUNNY     84  32  15 CALM      30.16S
RIVERSIDE AP   SUNNY     88  36  15 SE5       30.13F
MORENO VALLEY    N/A     87  34  14 CALM      28.29R
MARCH ARB      SUNNY     89  23   9 NW8       30.18R
HORSETHIEF CYN   N/A     87  19   8 CALM      30.13R
PERRIS           N/A     81  40  22 CALM        N/A
HEMET EAST       N/A     58  52  82 CALM      29.96S
FRENCH VALLEY  FAIR      82  32  16 N6        30.16S
TEMECULA         N/A     74  46  36 W2        30.20S

$$

SAN BERNARDINO AND RIVERSIDE COUNTY MOUNTAINS

CITY           SKY/WX    TMP DP  RH WIND       PRES   REMARKS
BIG BEAR AP    SUNNY     64  14  14 E7        30.55S

$$

SOUTHERN DESERT INCLUDING THE COACHELLA VALLEY

CITY           SKY/WX    TMP DP  RH WIND       PRES   REMARKS
PALM SPRINGS   SUNNY     92  35  13 SW6       30.18S
THOUSAND PALMS   N/A     90  34  14 N2        30.13S
PALM DESERT      N/A     88  43  20 CALM        N/A
THERMAL        SUNNY     92  39  15 NW8       30.10F
BLYTHE         SUNNY     77  27  15 S3        30.17R
IMPERIAL AP    SUNNY     82  39  21 W5        30.12R
EL CENTRO NAS  SUNNY     86  29  12 W8        30.13S
YUMA AZ        SUNNY     86  29  12 N12       30.12S
MEXICALI       SUNNY     82  23  11 NW8       30.12S

$$

UPPER DESERT

CITY           SKY/WX    TMP DP  RH WIND       PRES   REMARKS
VICTORVILLE AP SUNNY     70  28  21 CALM      30.36S
HESPERIA         N/A     73  36  26 CALM      30.41S
PALMDALE       SUNNY     65  29  25 CALM      30.35F
LANCASTER      SUNNY     64  28  25 CALM      30.35F
EDWARDS AFB    SUNNY     57  20  23 CALM      30.33S
DAGGETT        SUNNY     71  29  21 W10       30.31
29 PALMS N     SUNNY     79  23  12 NW9       30.35F
NEEDLES        SUNNY     83  29  14 N14       30.21S

$$

REGIONAL REPORTS

CITY           SKY/WX    TMP DP  RH WIND       PRES   REMARKS
SANTA BARBARA  SUNNY     76  46  34 CALM      30.09R
SANDBERG       SUNNY     73  23  15 E24G35    30.41R
LAS VEGAS NV   SUNNY     75  27  17 E5        30.34R
PHOENIX AZ     MOSUNNY   82  32  16 VRB3      30.14S
TIJUANA        SUNNY     88  25  10 N5        30.11R
ENSENADA NW      N/A     78  32  18 CALM      30.02F

$$

OFFSHORE ISLANDS

CITY           SKY/WX    TMP DP  RH WIND       PRES   REMARKS
CATALINA ARPT  SUNNY     87  27  11 E14       30.16S
SAN CLEMENTE I SUNNY     83  59  43 CALM      30.09S
SAN NICOLAS IS SUNNY     88  33  14 N7        30.10R

$$

MARINE AND OFFSHORE BUOY REPORTS

STATION/POSITION SKY/WX   TEMP    WIND        PRES    VSBY  SWELL
                          AIR SEA DIR/SP/G                  HT/PER/DIR
                          (F)     (DEG/KT/KT) (MB)    (MI)  (FT/S/D)
TANNER BANKS               65 64  300/  2/  4 1018.2R        10/310/12
S CLEMENTE BASIN           70 69  340/  8/  8 1018.2S         5/180/16
SAN NICOLAS IS.               62                N/A           7/310/13
SO. S. ROSA ISLA           65 61  280/  4/  6 1018.5R         8/290/13
W. S. BARBARA CH           63 56  300/  2/  4 1018.7R         8/280/13
M. S. BARBARA CH           68 62  120/  2/  4 1019.6R         5/270/12
S. MONICA BASIN               68  330/  2/  2 1018.1S         3/200/17
S PEDRO CHANNEL               68                N/A           3/150/18
CMP PENDLETON NS              67                N/A           3/210/17
OCEANSIDE OFFSHR              69                N/A           3/180/17
TORREY PINES OTR              68                N/A           3/190/17
SAN DIEGO BAY                 73              1018.8R
POINT LOMA SOUTH              69                N/A           5/180/17

$$




USA.gov is the U.S. government's official web portal to all federal, state and local government web resources and services.